Weather in Kadom

Russia / Ryazan Oblast     54°33′29″N   42°28′10″E
temp.,
°C
wind,
m/s
gust,
m/s
humid.,
%
clouds,
%
prec.,
mm/h
press.,
hPa
HPBL,
m
27 february, sat
sat2700:00+1w6149399 0.1 1000751
03:00+1w61395100 0.1 999728
06:00+1w71398100 0.1 998711
09:00−1nw91396100 0.9 999687
12:00−7nnw71091100 0.3 1002696
15:00−8nnw71090100 0.6 1006760
18:00−11nnw51090100 0.2 1009550
21:00−13nnw379599 0.2 1012150
28 february, sun
sun2800:00−15nw369672 0.0 1012115
03:00−16nw349647 0.0 101469
06:00−17nw239713 0.0 101439
09:00−14nnw359442 0.0 1015236
12:00−10nnw248896 0.1 1015450
15:00−8nw358898 0.2 1016599
18:00−11nnw2394100 0.1 101723
21:00−13n229391 0.1 101920
1 march, mon
mon100:00−15nne119697 0.0 102020
03:00−15nnw119681 0.0 102220
06:00−16nnw129741 0.0 102320
09:00−13nw119447 0.0 102449
12:00−8w238968 0.0 1024350
15:00−5wsw349084 0.1 1023426
18:00−8sw349595 0.0 102168
21:00−4sw4109597 0.1 1019522
2 march, tue
tue200:00−3sw61296100 0.3 1015456
03:00−1wsw71397100 1.7 1012663
06:00+1w61398100 1.4 1008658
09:000wnw71298100 2.3 1006678
12:000wnw61110078 0.3 1007744
15:00+1nw6129189 0.5 1007904
18:00−1nw5129069 0.1 1008655
21:00−2wnw6129483 0.2 1009543
3 march, wed
wed300:00−3nw5129593 0.1 1009546
03:00−5nw4109586 0.2 1010280
06:00−5nw4119593 0.1 1011352
09:00−4nw6119191 0.1 1012635
12:00−2nw71089100 0.1 1013956
15:00−2nw61085100 0.3 10141060
18:00−3wnw4109699 0.1 1014405
21:00−3wnw5119391 0.2 1016449